Content
SEND FEEDBACK

Daily
Averages
Monthly
Summary
United States of America

ST. LOUIS, MISSOURI


Home > North America > United States > Missouri
Elevation: 535 feet     Latitude: 38 45N     Longitude: 090 22W

WEATHER
 
SELECT A DAY
Number of Records: 196,395;   Date Range: 1/1/95 - 7/29/14
 
SHARE

PRINT THIS DATA

[ ← Previous Day ]
WEATHER ALMANAC - NOVEMBER 21, 2013
[ Next Day → ]
[ °C ]   °F
Weather ElementAverageHighLow
Temperature50.1 °F51.8 °F (4:01 pm)48 °F (2:54 am)
Dewpoint47.3 °F48.9 °F (2:54 pm)41 °F (1:54 am)
Humidity90.7 %96 % (2:54 pm)71 % (5:54 am)
Barometer30.15 in30.21 in (11:54 pm)30.09 in (2:54 am)
Wind Speed0.8 mph5.8 mph (8:54 am)
Weather ElementAverage
Visibility3.7 mi
Wind DirectionNNE (27.8 °)

Weather ElementTotal
Precipitation0.48 in
Heating Degree Days15.1 (Base 65)
Averaged from 46 records on November 21, 2013
WEATHER CONDITIONS BREAKOUT
WIND DIRECTION BREAKOUT
WEATHER BY HOUR - NOVEMBER 21, 2013
[ °C ]   °F
Local TimeTemperatureDewpointHumidityBarometerVisibilityWind DirectionWind SpeedGust SpeedPrecipitationEventsConditions
1:54 AM48.9 °F41.0 °F74 %30.10 in10.0 miSE (130°)3.5 mphOvercast
2:54 AM48.0 °F42.1 °F80 %30.09 in10.0 miEast (90°)4.6 mphOvercast
3:54 AM48.9 °F41.0 °F74 %30.09 in10.0 miCalmOvercast
4:54 AM48.9 °F41.0 °F74 %30.09 in10.0 miCalmOvercast
5:54 AM50.0 °F41.0 °F71 %30.11 in10.0 miCalmOvercast
6:54 AM50.0 °F42.1 °F74 %30.12 in10.0 miSouth (170°)3.5 mph0.00 inRainLight Rain
7:54 AM50.0 °F44.1 °F80 %30.13 in10.0 miVariable4.6 mph0.01 inRainLight Rain
8:54 AM50.0 °F46.0 °F86 %30.13 in10.0 miSouth (180°)5.8 mph0.00 inRainLight Rain
9:54 AM50.0 °F46.9 °F89 %30.14 in6.0 miSouth (170°)4.6 mph0.03 inRainLight Rain
10:30 AM50.0 °F48.2 °F94 %30.15 in5.0 miCalm0.04 inRainLight Rain
10:54 AM50.0 °F48.0 °F93 %30.15 in3.0 miSouth (190°)3.5 mph0.08 inRainRain
11:54 AM50.0 °F48.0 °F93 %30.13 in3.0 miSSW (200°)4.6 mph0.08 inRainLight Rain
12:05 PM50.0 °F48.2 °F94 %30.13 in6.0 miCalm0.01 inRainLight Rain
12:26 PM50.0 °F48.2 °F94 %30.12 in2.5 miCalm0.03 inRainRain
12:43 PM50.0 °F48.2 °F94 %30.11 in3.0 miCalm0.07 inRainLight Rain
12:54 PM50.0 °F48.0 °F93 %30.11 in5.0 miCalm0.08 inRainLight Rain
1:54 PM50.0 °F48.0 °F93 %30.11 in10.0 miCalm0.01 inOvercast
2:21 PM50.0 °F48.2 °F94 %30.11 in1.8 miCalm0.00 inOvercast
2:50 PM50.0 °F48.2 °F94 %30.11 in1.0 miCalm0.01 inOvercast
2:54 PM50.0 °F48.9 °F96 %30.11 in1.0 miCalm0.01 inOvercast
3:54 PM51.1 °F48.9 °F92 %30.12 in1.0 miSSE (150°)3.5 mphOvercast
4:01 PM51.8 °F48.2 °F88 %30.11 in2.0 miCalmOvercast
4:54 PM51.1 °F48.9 °F92 %30.13 in2.0 miCalmOvercast
5:07 PM51.8 °F48.2 °F88 %30.13 in2.0 miCalmOvercast
5:16 PM51.8 °F48.2 °F88 %30.14 in2.0 miCalmOvercast
5:54 PM50.0 °F48.9 °F96 %30.15 in2.0 miCalmOvercast
6:03 PM50.0 °F48.2 °F94 %30.15 in3.0 miCalmOvercast
6:13 PM50.0 °F48.2 °F94 %30.16 in2.5 miCalmOvercast
6:24 PM50.0 °F48.2 °F94 %30.15 in2.5 miCalmOvercast
6:54 PM50.0 °F48.9 °F96 %30.17 in2.5 miCalmOvercast
7:03 PM50.0 °F48.2 °F94 %30.16 in3.0 miCalmOvercast
7:16 PM50.0 °F48.2 °F94 %30.16 in2.0 miCalmOvercast
7:20 PM50.0 °F48.2 °F94 %30.16 in1.8 miCalmOvercast
7:29 PM50.0 °F48.2 °F94 %30.17 in1.2 miCalmOvercast
7:54 PM50.0 °F48.9 °F96 %30.18 in1.8 miCalmOvercast
8:03 PM50.0 °F48.2 °F94 %30.17 in2.0 miCalmOvercast
8:10 PM50.0 °F48.2 °F94 %30.18 in1.8 miCalmOvercast
8:54 PM50.0 °F48.9 °F96 %30.18 in1.0 miCalmOvercast
9:26 PM50.0 °F48.2 °F94 %30.19 in1.0 miCalm0.01 inOvercast
9:54 PM50.0 °F48.9 °F96 %30.20 in1.0 miCalm0.01 inMist
10:01 PM50.0 °F48.2 °F94 %30.19 in0.5 miCalmFogFog
10:10 PM50.0 °F48.2 °F94 %30.20 in0.5 miCalmFogFog
10:40 PM50.0 °F48.2 °F94 %30.20 in0.2 miCalmFogFog
10:47 PM50.0 °F48.2 °F94 %30.19 in0.5 miCalmFogFog
10:54 PM50.0 °F48.9 °F96 %30.20 in0.5 miCalmFogFog
11:54 PM50.0 °F48.9 °F96 %30.21 in1.0 miCalmOvercast
Hourly data recorded from KSUS, located miles away from St. Louis, Missouri







STORIES FROM OUR PARTNERS